Regional Weather Roundup
Issued by NWS Upton, NY

Current Version | Previous Version | Text Only | Print | Product List | Glossary On
Versions: 1 2 3 4 5 6 7 8 9 10 11 12 13 14 15 16 17 18 19 20 21 22 23 24 25 26 27 28 29 30 31 32 33 34 35 36 37 38 39 40 41 42 43 44 45 46 47 48 49 50
000 ASUS41 KOKX 272218 RWROKX REGIONAL WEATHER ROUNDUP NATIONAL WEATHER SERVICE NEW YORK NY 600 PM EDT WED MAY 27 2015 NOTE: "FAIR" INDICATES FEW OR NO CLOUDS BELOW 12,000 FEET WITH NO SIGNIFICANT WEATHER AND/OR OBSTRUCTIONS TO VISIBILITY. NYZ071-072-176-178-NJZ106-104-272300- NEW YORK CITY METRO AREA CITY SKY/WX TMP DP RH WIND PRES REMARKS CENTRAL PARK MOSUNNY 79 63 57 MISG 30.09F LAGUARDIA APRT MOSUNNY 73 60 63 S22 30.07F KENNEDY INTL MOSUNNY 69 59 70 S31G40 30.09F NEWARK/LIBERTY MOSUNNY 84 68 58 S15G24 30.04F BRNX BOT. GARD N/A N/A N/A N/A S17 30.09F TETERBORO MOSUNNY 83 66 56 S10G22 30.04F $$ NYZ177-179-078>081-272300- LONG ISLAND NEW YORK CITY SKY/WX TMP DP RH WIND PRES REMARKS FARMINGDALE SUNNY 70 61 73 SW24G37 30.13F ISLIP MOSUNNY 69 60 73 S21G29 30.13F SHIRLEY SUNNY 68 59 73 S15G28 30.16F WESTHAMPTON CLOUDY 67 59 75 S15G29 30.17F MONTAUK POINT N/A 65 58 78 S10G22 30.18F $$ NYZ052-065-067-272300- HUDSON VALLEY CITY SKY/WX TMP DP RH WIND PRES REMARKS WHITE PLAINS PTSUNNY 74 65 73 SE9 30.09F NEWBURGH TSTM N/A N/A N/A W23G35 30.12R MONTGOMERY LGT RAIN 70 66 87 S8 30.08S POUGHKEEPSIE TSTM 71 65 81 W12G31 30.10R ALBANY LGT RAIN 71 65 81 S8 30.04R $$ NJZ001-105-106-008-010-013-015-019>022-104-272300- NEW JERSEY CITY SKY/WX TMP DP RH WIND PRES REMARKS NEWARK/LIBERTY MOSUNNY 84 68 58 S15G24 30.04F TETERBORO MOSUNNY 83 66 56 S10G22 30.04F CALDWELL PTSUNNY 78 69 73 VRB3 30.05F MORRISTOWN TSTM 77 68 73 W28G40 30.08R SOMERVILLE PTSUNNY 82 68 62 NW16G22 30.05S SUSSEX CLOUDY 70 66 87 SW3 30.11F ANDOVER N/A 71 69 93 CALM 30.10R TRENTON PTSUNNY 76 70 82 S5 30.08S MILLVILLE MOSUNNY 77 67 71 S9 30.13F ATLANTIC CITY MOSUNNY 74 62 66 S18G29 30.15S WRIGHTSTOWN MOSUNNY 83 69 62 S14 30.07S TOMS RIVER SUNNY N/A N/A N/A S14G25 30.12S BELMAR SUNNY 79 64 61 S9G18 30.11S $$ PAZ047>061-062-071-272300- EASTERN PENNSYLVANIA CITY SKY/WX TMP DP RH WIND PRES REMARKS PHILADELPHIA TSTM 77 68 73 W26G33 30.11R VSB 3/4 ALLENTOWN LGT RAIN 71 68 90 W8 30.11F SCRANTON CLOUDY 73 69 87 SW5 30.10S $$ CTZ002-004>006-009-010-012-RIZ004-006-007-MAZ004-011-015-272300- SOUTHERN NEW ENGLAND IN CT CITY SKY/WX TMP DP RH WIND PRES REMARKS BRADLEY INTL PTSUNNY 79 66 64 S21 30.09R HARTFORD PTSUNNY 76 65 68 S17G26 30.10R DANBURY SUNNY 75 63 66 S12G23 30.10F WTRBRY/OXFORD PTSUNNY 73 64 73 S12G21 30.13F BRIDGEPORT SUNNY 72 61 68 S13 30.12F MERIDEN SUNNY 75 63 66 S20G30 30.11F NEW HAVEN PTSUNNY 70 62 76 S7 30.13F CHESTER CLOUDY 70 63 78 S10 30.16S GROTON CLOUDY 65 58 78 SW8 30.16S WILLIMANTIC PTSUNNY 75 64 68 S13 30.14R IN RI CITY SKY/WX TMP DP RH WIND PRES REMARKS PROVIDENCE PTSUNNY 72 62 71 SW18G30 30.14F BLOCK ISLAND MOSUNNY 63 55 77 SW16G25 30.18S WESTERLY CLOUDY 65 58 78 SW10 30.18S IN MA CITY SKY/WX TMP DP RH WIND PRES REMARKS BOSTON MOSUNNY 78 65 63 S24G30 30.07R WORCESTER PTSUNNY 78 65 63 SW20G26 30.11R WESTFIELD PTSUNNY 81 66 60 S21G29 30.07R PROVINCETOWN CLOUDY 66 57 72 SW26G32 30.14S NANTUCKET MOSUNNY 64 58 80 SW17 30.20S $$ ANZ330-335-338-340-345-350-353-355-272300- COASTAL MARINE OBSERVATIONS STATION/POSITION TIME SKY/WX TEMP WIND PRES VSBY WAVE AIR SEA DIR/SP/G HT/PER (UTC) (F) (DEG/KT/KT) (MB) (MI) (FT/S) NY HARB ENTRANCE 2050 62 55 190/ 23/ 25 1019.3 5/ 6 4S FIRE IS 2103 58 N/A 5/ 6 20S FIRE ISLAND 2050 62 57 190/ 17/ 21 1021.1 4/ 6 GREAT SOUTH BAY 2100 64 68 220/ 14/ 23 N/A 23SW MTP 2050 60 54 200/ 16/ 17 1021.5 4/ 6 HUDSON CANYON NOT AVBL KINGS POINT 2100 70 61 190/ 15/ 21 1018.5 CENTRAL LI SOUND 2100 65 57 210/ 17/ 21 N/A EASTERN LI SOUND 2100 64 210/ 14/ 16 N/A ROBBINS REEF 2100 70 180/ 17/ 19 1017.2 $$ >>>>>>>>>>>>>>>>>>>>>>>>>>>> KEY <<<<<<<<<<<<<<<<<<<<<<<<<<< > < > SKY/WX - SKY CONDITION/PRESENT WEATHER < > TMP - TEMPERATURE IN FAHRENHEIT < > DP - DEWPOINT IN FAHRENHEIT < > RH - RELATIVE HUMIDITY IN PERCENT < > WIND - DIRECTION AND SPEED IN MPH < > PRES - MEAN SEA LEVEL PRESSURE IN INCHES OF HG < > WCI - WIND CHILL INDEX < > VSB - VISIBILITY IN MILES < > HX - HEAT INDEX < > TC - TEMPERATURE IN CELSIUS < > VRB - VARIABLE WIND DIRECTION < > < >>>>>>>>>>>>>>>>>>>>>>>>>>>> KEY <<<<<<<<<<<<<<<<<<<<<<<<<<<

USA.gov is the U.S. government's official web portal to all federal, state and local government web resources and services.